COSMOS 1275 DEB, 13619

Orbit data source: Space-Track

COSMOS 1275 DEB, 13619 is space debris in LEO originally from a launch on Thu, 04 Jun 1981 UTC launched from the Plesetsk Missile And Space Complex (PKMTR). Debris objects in space refer to the collection of defunct objects orbiting the Earth. Examples of debris include non-operational satellites, rocket bodies, and fragments generated from explosions, collisions, or faulty payload assembly.

Loading next visibility...
Identifier
13619, 1981-053GM
Orbit
LEO
Country
Flag of CISCIS
Related business
Manufacturer
Unknown
Mission
Spacecraft
Bus & Motor
Unknown
Mass
Unknown
Launch date (UTC)
1981-06-04 (45 years ago)
Launch vehicle
Unknown
Launch site
Plesetsk Missile And Space Complex (PKMTR)
Object type
Payload
Rocket body
Debris
Shape & HBR
Unknown shape, 0.1 m
Radar Cross Section
Small (<0.1 m²)

Expand to show TLE details & history
Last TLE update: 15 hours ago

TLE from 15 hours ago
0 COSMOS 1275 DEB
1 13619U 81053GM  25354.94463492  .00001797  00000-0  10159-2 0  9999
2 13619  83.0289 244.4432 0020667 152.0981 223.8109 14.09571370198035
Epoch: 2025-12-20T22:40Z
TLE epoch observation values (Epoch: 2025-12-20T22:40:16.457Z)
Latitude
15.6041°
Longitude
176.55711°
Altitude
873.92 km
Speed
7.411 km/s
True Right ascension
16h 25m 33s
True Declination
15° 30' 60"
Sunlit
Object was in daylight at epoch
Visualization orbit readout
Latitude
Unknown
Longitude
Unknown
Altitude
Unknown
Speed
Unknown
Apparent Right ascension
Unknown
Apparent Declination
Unknown
Sunlit
N/A
Visualization observer readout
Local Sidereal Time
12:49:44
Azimuth
Unknown
Elevation
Unknown
Doppler factor
Unknown
Orbital elements
Apogee altitude
872.891 km
Perigee altitude
842.982 km
Semi-major axis
7,236.074 km
Eccentricity
0.00207
Inclination
83.0289°
RAAN
244.4432°
Arg. of periapsis
152.0981°
True anomaly
223.64726°
Mean anomaly
223.8109°
Eccentric anomaly
223.72905°
Mean motion
3.52605 °/min
Orbital period
102.1 mins
BSTAR
0.0010159
Loading maneuver chart data...
Computing Atmospheric mass density...
Loading historical data...
Loading historical data...
Loading historical data...
Loading historical data...
Loading historical data...
Loading historical data...
Loading historical data...

Documentation

Showing up to 5 results
|